カタログに戻る

OPS 0100

TRANSIT 15

運用中ナビゲーションPO
NORAD 2754·PAYLOAD·🇺🇸 United States

打ち上げ Apr 14, 1967 から Vandenberg Space Force Base

Loading…

次のパス (今後24時間)

TLE

最新Source: Space-Track

元期: Sep 14, 2026, 09:03 UTC

1 02754U 67034A   26257.37757395  .00000085  00000-0  10692-3 0  9990
2 02754  90.2397  37.3017 0017929 242.2462 146.0701 13.57420941938219

AllMySatでOPS 0100をリアルタイム追跡

Download on the App Store